THOR 5

Last updated on June 17, 2019, 3:36 a.m. UTC

1 32487U 08006A   19167.80434969 -.00000019  00000-0  00000+0 0  9995
2 32487   0.0151  14.0745 0002921  83.0008  96.5225  1.00260209 41539
UTC
Height (km)
Latitude
Longitude
Inclination
Orbital Period
UTC large
Height (km)
Speed (km/s)
/
Latitude / Longitude
Inclination (degrees)
Orbital Period (minutes)
Azimuth
Elevation
Range (km)
Doppler Factor
iOS Compass Heading
iOS Angle

Next 30 passes for location: Hong Kong

Rise time Rise Azimuth (degrees) Set time Set Azimuth (degrees) Duration Max altitude (degrees)

No matching passes for this satellites